2019,07,26,00,00,00,266.1,,,,,,,,,,,,,,
2019,07,26,00,01,00,,,,,,,,,,,,,,,
2019,07,26,00,02,00,286.8,,,,,,,,,,,,,,
2019,07,26,00,03,00,290.3,,,,,,,,,,,,,,
2019,07,26,00,04,00,288.8,,,,,,,,,,,,,,
2019,07,26,00,05,00,288.7,,,,,,,,,,,,,,
2019,07,26,00,06,00,296.0,,,,,,,,,,,,,,
2019,07,26,00,07,00,288.2,,,,,,,,,,,,,,
2019,07,26,00,08,00,283.3,,,,,,,,,,,,,,
2019,07,26,00,09,00,295.3,,,,,,,,,,,,,,
2019,07,26,00,10,00,286.6,,,,,,,,,,,,,,
2019,07,26,00,11,00,285.4,,,,,,,,,,,,,,
2019,07,26,00,12,00,290.6,,,,,,,,,,,,,,
2019,07,26,00,13,00,284.0,,,,,,,,,,,,,,
2019,07,26,00,14,00,285.7,,,,,,,,,,,,,,
2019,07,26,00,15,00,275.2,,,,,,,,,,,,,,
2019,07,26,00,16,00,268.5,,,,,,,,,,,,,,
2019,07,26,00,17,00,292.2,,,,,,,,,,,,,,
2019,07,26,00,18,00,290.6,,,,,,,,,,,,,,
2019,07,26,00,19,00,301.0,,,,,,,,,,,,,,
2019,07,26,00,20,00,311.5,,,,,,,,,,,,,,
2019,07,26,00,21,00,313.3,,,,,,,,,,,,,,
2019,07,26,00,22,00,309.4,,,,,,,,,,,,,,
2019,07,26,00,23,00,303.3,,,,,,,,,,,,,,
2019,07,26,00,24,00,314.0,,,,,,,,,,,,,,
2019,07,26,00,25,00,308.8,,,,,,,,,,,,,,
2019,07,26,00,26,00,295.1,,,,,,,,,,,,,,
2019,07,26,00,27,00,259.4,,,,,,,,,,,,,,
2019,07,26,00,28,00,275.1,,,,,,,,,,,,,,
2019,07,26,00,29,00,281.1,,,,,,,,,,,,,,
2019,07,26,00,30,00,285.4,,,,,,,,,,,,,,
2019,07,26,00,31,00,294.1,,,,,,,,,,,,,,
2019,07,26,00,32,00,298.2,,,,,,,,,,,,,,
2019,07,26,00,33,00,301.0,,,,,,,,,,,,,,
2019,07,26,00,34,00,289.3,,,,,,,,,,,,,,
2019,07,26,00,35,00,294.3,,,,,,,,,,,,,,
2019,07,26,00,36,00,298.9,,,,,,,,,,,,,,
2019,07,26,00,37,00,314.8,,,,,,,,,,,,,,
2019,07,26,00,38,00,306.2,,,,,,,,,,,,,,
2019,07,26,00,39,00,308.3,,,,,,,,,,,,,,
2019,07,26,00,40,00,325.4,,,,,,,,,,,,,,
2019,07,26,00,41,00,323.3,,,,,,,,,,,,,,
2019,07,26,00,42,00,332.1,,,,,,,,,,,,,,
2019,07,26,00,43,00,340.4,,,,,,,,,,,,,,
2019,07,26,00,44,00,373.4,,,,,,,,,,,,,,
2019,07,26,00,45,00,372.3,,,,,,,,,,,,,,
2019,07,26,00,46,00,386.9,,,,,,,,,,,,,,
2019,07,26,00,47,00,383.0,,,,,,,,,,,,,,
2019,07,26,00,48,00,381.1,,,,,,,,,,,,,,
2019,07,26,00,49,00,384.1,,,,,,,,,,,,,,
2019,07,26,00,50,00,359.7,,,,,,,,,,,,,,
2019,07,26,00,51,00,355.0,,,,,,,,,,,,,,
2019,07,26,00,52,00,350.1,,,,,,,,,,,,,,
2019,07,26,00,53,00,342.7,,,,,,,,,,,,,,
2019,07,26,00,54,00,346.0,,,,,,,,,,,,,,
2019,07,26,00,55,00,373.5,,,,,,,,,,,,,,
2019,07,26,00,56,00,371.8,,,,,,,,,,,,,,
2019,07,26,00,57,00,369.1,,,,,,,,,,,,,,
2019,07,26,00,58,00,367.3,,,,,,,,,,,,,,
2019,07,26,00,59,00,377.3,,,,,,,,,,,,,,
2019,07,26,01,00,00,383.3,,,,,,,,,,,,,,
2019,07,26,01,01,00,377.6,,,,,,,,,,,,,,
2019,07,26,01,02,00,381.5,,,,,,,,,,,,,,
2019,07,26,01,03,00,384.1,,,,,,,,,,,,,,
2019,07,26,01,04,00,376.8,,,,,,,,,,,,,,
2019,07,26,01,05,00,359.3,,,,,,,,,,,,,,
2019,07,26,01,06,00,340.8,,,,,,,,,,,,,,
2019,07,26,01,07,00,342.5,,,,,,,,,,,,,,
2019,07,26,01,08,00,342.0,,,,,,,,,,,,,,
2019,07,26,01,09,00,340.7,,,,,,,,,,,,,,
2019,07,26,01,10,00,333.3,,,,,,,,,,,,,,
2019,07,26,01,11,00,349.9,,,,,,,,,,,,,,
2019,07,26,01,12,00,340.1,,,,,,,,,,,,,,
2019,07,26,01,13,00,325.5,,,,,,,,,,,,,,
2019,07,26,01,14,00,300.1,,,,,,,,,,,,,,
2019,07,26,01,15,00,292.5,,,,,,,,,,,,,,
2019,07,26,01,16,00,283.2,,,,,,,,,,,,,,
2019,07,26,01,17,00,286.3,,,,,,,,,,,,,,
2019,07,26,01,18,00,289.6,,,,,,,,,,,,,,
2019,07,26,01,19,00,295.7,,,,,,,,,,,,,,
2019,07,26,01,20,00,282.3,,,,,,,,,,,,,,
2019,07,26,01,21,00,265.2,,,,,,,,,,,,,,
2019,07,26,01,22,00,256.3,,,,,,,,,,,,,,
2019,07,26,01,23,00,253.3,,,,,,,,,,,,,,
2019,07,26,01,24,00,251.9,,,,,,,,,,,,,,
2019,07,26,01,25,00,251.9,,,,,,,,,,,,,,
2019,07,26,01,26,00,254.1,,,,,,,,,,,,,,
2019,07,26,01,27,00,256.0,,,,,,,,,,,,,,
2019,07,26,01,28,00,254.4,,,,,,,,,,,,,,
2019,07,26,01,29,00,254.3,,,,,,,,,,,,,,
2019,07,26,01,30,00,264.6,,,,,,,,,,,,,,
2019,07,26,01,31,00,253.5,,,,,,,,,,,,,,
2019,07,26,01,32,00,253.5,,,,,,,,,,,,,,
2019,07,26,01,33,00,253.2,,,,,,,,,,,,,,
2019,07,26,01,34,00,250.0,,,,,,,,,,,,,,
2019,07,26,01,35,00,248.2,,,,,,,,,,,,,,
2019,07,26,01,36,00,250.1,,,,,,,,,,,,,,
2019,07,26,01,37,00,249.4,,,,,,,,,,,,,,
2019,07,26,01,38,00,246.2,,,,,,,,,,,,,,
2019,07,26,01,39,00,243.5,,,,,,,,,,,,,,
2019,07,26,01,40,00,237.6,,,,,,,,,,,,,,
2019,07,26,01,41,00,233.9,,,,,,,,,,,,,,
2019,07,26,01,42,00,230.5,,,,,,,,,,,,,,
2019,07,26,01,43,00,232.5,,,,,,,,,,,,,,
2019,07,26,01,44,00,234.4,,,,,,,,,,,,,,
2019,07,26,01,45,00,231.8,,,,,,,,,,,,,,
2019,07,26,01,46,00,232.9,,,,,,,,,,,,,,
2019,07,26,01,47,00,238.2,,,,,,,,,,,,,,
2019,07,26,01,48,00,242.8,,,,,,,,,,,,,,
2019,07,26,01,49,00,239.4,,,,,,,,,,,,,,
2019,07,26,01,50,00,226.7,,,,,,,,,,,,,,
2019,07,26,01,51,00,211.0,,,,,,,,,,,,,,
2019,07,26,01,52,00,210.2,,,,,,,,,,,,,,
2019,07,26,01,53,00,209.8,,,,,,,,,,,,,,
2019,07,26,01,54,00,210.8,,,,,,,,,,,,,,
2019,07,26,01,55,00,211.9,,,,,,,,,,,,,,
2019,07,26,01,56,00,216.0,,,,,,,,,,,,,,
2019,07,26,01,57,00,211.1,,,,,,,,,,,,,,
2019,07,26,01,58,00,207.3,,,,,,,,,,,,,,
2019,07,26,01,59,00,206.1,,,,,,,,,,,,,,
2019,07,26,02,00,00,205.4,,,,,,,,,,,,,,
2019,07,26,02,01,00,203.1,,,,,,,,,,,,,,
2019,07,26,02,02,00,203.4,,,,,,,,,,,,,,
2019,07,26,02,03,00,202.4,,,,,,,,,,,,,,
2019,07,26,02,04,00,203.2,,,,,,,,,,,,,,
2019,07,26,02,05,00,201.1,,,,,,,,,,,,,,
2019,07,26,02,06,00,199.5,,,,,,,,,,,,,,
2019,07,26,02,07,00,204.3,,,,,,,,,,,,,,
2019,07,26,02,08,00,202.3,,,,,,,,,,,,,,
2019,07,26,02,09,00,205.9,,,,,,,,,,,,,,
2019,07,26,02,10,00,204.8,,,,,,,,,,,,,,
2019,07,26,02,11,00,206.7,,,,,,,,,,,,,,
2019,07,26,02,12,00,205.6,,,,,,,,,,,,,,
2019,07,26,02,13,00,205.8,,,,,,,,,,,,,,
2019,07,26,02,14,00,203.7,,,,,,,,,,,,,,
2019,07,26,02,15,00,198.5,,,,,,,,,,,,,,
2019,07,26,02,16,00,193.3,,,,,,,,,,,,,,
2019,07,26,02,17,00,189.4,,,,,,,,,,,,,,
2019,07,26,02,18,00,190.1,,,,,,,,,,,,,,
2019,07,26,02,19,00,182.5,,,,,,,,,,,,,,
2019,07,26,02,20,00,176.9,,,,,,,,,,,,,,
2019,07,26,02,21,00,179.7,,,,,,,,,,,,,,
2019,07,26,02,22,00,186.0,,,,,,,,,,,,,,
2019,07,26,02,23,00,190.9,,,,,,,,,,,,,,
2019,07,26,02,24,00,194.3,,,,,,,,,,,,,,
2019,07,26,02,25,00,197.2,,,,,,,,,,,,,,
2019,07,26,02,26,00,200.3,,,,,,,,,,,,,,
2019,07,26,02,27,00,205.5,,,,,,,,,,,,,,
2019,07,26,02,28,00,204.9,,,,,,,,,,,,,,
2019,07,26,02,29,00,205.2,,,,,,,,,,,,,,
2019,07,26,02,30,00,203.1,,,,,,,,,,,,,,
2019,07,26,02,31,00,199.1,,,,,,,,,,,,,,
2019,07,26,02,32,00,200.4,,,,,,,,,,,,,,
2019,07,26,02,33,00,197.4,,,,,,,,,,,,,,
2019,07,26,02,34,00,194.3,,,,,,,,,,,,,,
2019,07,26,02,35,00,199.7,,,,,,,,,,,,,,
2019,07,26,02,36,00,206.9,,,,,,,,,,,,,,
2019,07,26,02,37,00,208.1,,,,,,,,,,,,,,
2019,07,26,02,38,00,208.6,,,,,,,,,,,,,,
2019,07,26,02,39,00,211.4,,,,,,,,,,,,,,
2019,07,26,02,40,00,224.3,,,,,,,,,,,,,,
2019,07,26,02,41,00,227.4,,,,,,,,,,,,,,
2019,07,26,02,42,00,233.4,,,,,,,,,,,,,,
2019,07,26,02,43,00,234.2,,,,,,,,,,,,,,
2019,07,26,02,44,00,235.6,,,,,,,,,,,,,,
2019,07,26,02,45,00,220.7,,,,,,,,,,,,,,
2019,07,26,02,46,00,203.4,,,,,,,,,,,,,,
2019,07,26,02,47,00,212.8,,,,,,,,,,,,,,
2019,07,26,02,48,00,213.2,,,,,,,,,,,,,,
2019,07,26,02,49,00,209.0,,,,,,,,,,,,,,
2019,07,26,02,50,00,207.2,,,,,,,,,,,,,,
2019,07,26,02,51,00,208.6,,,,,,,,,,,,,,
2019,07,26,02,52,00,210.6,,,,,,,,,,,,,,
2019,07,26,02,53,00,222.5,,,,,,,,,,,,,,
2019,07,26,02,54,00,226.6,,,,,,,,,,,,,,
2019,07,26,02,55,00,233.2,,,,,,,,,,,,,,
2019,07,26,02,56,00,223.7,,,,,,,,,,,,,,
2019,07,26,02,57,00,214.5,,,,,,,,,,,,,,
2019,07,26,02,58,00,210.3,,,,,,,,,,,,,,
2019,07,26,02,59,00,209.5,,,,,,,,,,,,,,
2019,07,26,03,00,00,211.3,,,,,,,,,,,,,,
2019,07,26,03,01,00,207.6,,,,,,,,,,,,,,
2019,07,26,03,02,00,207.4,,,,,,,,,,,,,,
2019,07,26,03,03,00,205.3,,,,,,,,,,,,,,
2019,07,26,03,04,00,207.2,,,,,,,,,,,,,,
2019,07,26,03,05,00,209.5,,,,,,,,,,,,,,
2019,07,26,03,06,00,222.8,,,,,,,,,,,,,,
2019,07,26,03,07,00,227.8,,,,,,,,,,,,,,
2019,07,26,03,08,00,215.5,,,,,,,,,,,,,,
2019,07,26,03,09,00,215.9,,,,,,,,,,,,,,
2019,07,26,03,10,00,215.3,,,,,,,,,,,,,,
2019,07,26,03,11,00,212.2,,,,,,,,,,,,,,
2019,07,26,03,12,00,213.7,,,,,,,,,,,,,,
2019,07,26,03,13,00,208.8,,,,,,,,,,,,,,
2019,07,26,03,14,00,208.9,,,,,,,,,,,,,,
2019,07,26,03,15,00,214.0,,,,,,,,,,,,,,
2019,07,26,03,16,00,222.3,,,,,,,,,,,,,,
2019,07,26,03,17,00,213.6,,,,,,,,,,,,,,
2019,07,26,03,18,00,209.0,,,,,,,,,,,,,,
2019,07,26,03,19,00,208.1,,,,,,,,,,,,,,
2019,07,26,03,20,00,208.4,,,,,,,,,,,,,,
2019,07,26,03,21,00,198.9,,,,,,,,,,,,,,
2019,07,26,03,22,00,200.7,,,,,,,,,,,,,,
2019,07,26,03,23,00,197.6,,,,,,,,,,,,,,
2019,07,26,03,24,00,197.1,,,,,,,,,,,,,,
2019,07,26,03,25,00,,,,,,,,,,,,,,,
2019,07,26,03,26,00,,,,,,,,,,,,,,,
2019,07,26,03,27,00,198.8,,,,,,,,,,,,,,
2019,07,26,03,28,00,199.1,,,,,,,,,,,,,,
2019,07,26,03,29,00,200.2,,,,,,,,,,,,,,
2019,07,26,03,30,00,196.2,,,,,,,,,,,,,,
2019,07,26,03,31,00,191.3,,,,,,,,,,,,,,
2019,07,26,03,32,00,185.4,,,,,,,,,,,,,,
2019,07,26,03,33,00,186.9,,,,,,,,,,,,,,
2019,07,26,03,34,00,184.5,,,,,,,,,,,,,,
2019,07,26,03,35,00,191.4,,,,,,,,,,,,,,
2019,07,26,03,36,00,203.5,,,,,,,,,,,,,,
2019,07,26,03,37,00,194.1,,,,,,,,,,,,,,
2019,07,26,03,38,00,187.8,,,,,,,,,,,,,,
2019,07,26,03,39,00,187.2,,,,,,,,,,,,,,
2019,07,26,03,40,00,186.9,,,,,,,,,,,,,,
2019,07,26,03,41,00,190.4,,,,,,,,,,,,,,
2019,07,26,03,42,00,200.9,,,,,,,,,,,,,,
2019,07,26,03,43,00,202.0,,,,,,,,,,,,,,
2019,07,26,03,44,00,204.5,,,,,,,,,,,,,,
2019,07,26,03,45,00,207.1,,,,,,,,,,,,,,
2019,07,26,03,46,00,211.7,,,,,,,,,,,,,,
2019,07,26,03,47,00,,,,,,,,,,,,,,,
2019,07,26,03,48,00,,,,,,,,,,,,,,,
2019,07,26,03,49,00,197.7,,,,,,,,,,,,,,
2019,07,26,03,50,00,200.8,,,,,,,,,,,,,,
2019,07,26,03,51,00,207.0,,,,,,,,,,,,,,
2019,07,26,03,52,00,221.5,,,,,,,,,,,,,,
2019,07,26,03,53,00,207.6,,,,,,,,,,,,,,
2019,07,26,03,54,00,193.2,,,,,,,,,,,,,,
2019,07,26,03,55,00,183.3,,,,,,,,,,,,,,
2019,07,26,03,56,00,175.8,,,,,,,,,,,,,,
2019,07,26,03,57,00,184.1,,,,,,,,,,,,,,
2019,07,26,03,58,00,183.5,,,,,,,,,,,,,,
2019,07,26,03,59,00,174.4,,,,,,,,,,,,,,
2019,07,26,04,00,00,175.0,,,,,,,,,,,,,,
2019,07,26,04,01,00,174.9,,,,,,,,,,,,,,
2019,07,26,04,02,00,183.2,,,,,,,,,,,,,,
2019,07,26,04,03,00,187.0,,,,,,,,,,,,,,
2019,07,26,04,04,00,195.0,,,,,,,,,,,,,,
2019,07,26,04,05,00,199.5,,,,,,,,,,,,,,
2019,07,26,04,06,00,202.9,,,,,,,,,,,,,,
2019,07,26,04,07,00,210.0,,,,,,,,,,,,,,
2019,07,26,04,08,00,215.5,,,,,,,,,,,,,,
2019,07,26,04,09,00,214.4,,,,,,,,,,,,,,
2019,07,26,04,10,00,223.7,,,,,,,,,,,,,,
2019,07,26,04,11,00,217.1,,,,,,,,,,,,,,
2019,07,26,04,12,00,211.1,,,,,,,,,,,,,,
2019,07,26,04,13,00,209.1,,,,,,,,,,,,,,
2019,07,26,04,14,00,211.4,,,,,,,,,,,,,,
2019,07,26,04,15,00,208.8,,,,,,,,,,,,,,
2019,07,26,04,16,00,208.0,,,,,,,,,,,,,,
2019,07,26,04,17,00,208.1,,,,,,,,,,,,,,
2019,07,26,04,18,00,208.2,,,,,,,,,,,,,,
2019,07,26,04,19,00,204.9,,,,,,,,,,,,,,
2019,07,26,04,20,00,208.9,,,,,,,,,,,,,,
2019,07,26,04,21,00,212.1,,,,,,,,,,,,,,
2019,07,26,04,22,00,214.7,,,,,,,,,,,,,,
2019,07,26,04,23,00,210.7,,,,,,,,,,,,,,
2019,07,26,04,24,00,212.0,,,,,,,,,,,,,,
2019,07,26,04,25,00,215.1,,,,,,,,,,,,,,
2019,07,26,04,26,00,225.1,,,,,,,,,,,,,,
2019,07,26,04,27,00,235.8,,,,,,,,,,,,,,
2019,07,26,04,28,00,233.2,,,,,,,,,,,,,,
2019,07,26,04,29,00,238.7,,,,,,,,,,,,,,
2019,07,26,04,30,00,231.2,,,,,,,,,,,,,,
2019,07,26,04,31,00,233.2,,,,,,,,,,,,,,
2019,07,26,04,32,00,218.8,,,,,,,,,,,,,,
2019,07,26,04,33,00,208.7,,,,,,,,,,,,,,
2019,07,26,04,34,00,208.0,,,,,,,,,,,,,,
2019,07,26,04,35,00,209.9,,,,,,,,,,,,,,
2019,07,26,04,36,00,210.5,,,,,,,,,,,,,,
2019,07,26,04,37,00,215.5,,,,,,,,,,,,,,
2019,07,26,04,38,00,223.5,,,,,,,,,,,,,,
2019,07,26,04,39,00,245.9,,,,,,,,,,,,,,
2019,07,26,04,40,00,251.9,,,,,,,,,,,,,,
2019,07,26,04,41,00,249.1,,,,,,,,,,,,,,
2019,07,26,04,42,00,237.7,,,,,,,,,,,,,,
2019,07,26,04,43,00,230.7,,,,,,,,,,,,,,
2019,07,26,04,44,00,234.0,,,,,,,,,,,,,,
2019,07,26,04,45,00,250.2,,,,,,,,,,,,,,
2019,07,26,04,46,00,261.0,,,,,,,,,,,,,,
2019,07,26,04,47,00,245.6,,,,,,,,,,,,,,
2019,07,26,04,48,00,243.4,,,,,,,,,,,,,,
2019,07,26,04,49,00,248.6,,,,,,,,,,,,,,
2019,07,26,04,50,00,254.5,,,,,,,,,,,,,,
2019,07,26,04,51,00,284.6,,,,,,,,,,,,,,
2019,07,26,04,52,00,291.7,,,,,,,,,,,,,,
2019,07,26,04,53,00,289.9,,,,,,,,,,,,,,
2019,07,26,04,54,00,264.4,,,,,,,,,,,,,,
2019,07,26,04,55,00,254.0,,,,,,,,,,,,,,
2019,07,26,04,56,00,253.0,,,,,,,,,,,,,,
2019,07,26,04,57,00,249.5,,,,,,,,,,,,,,
2019,07,26,04,58,00,244.0,,,,,,,,,,,,,,
2019,07,26,04,59,00,245.4,,,,,,,,,,,,,,
2019,07,26,05,00,00,253.5,,,,,,,,,,,,,,
2019,07,26,05,01,00,246.4,,,,,,,,,,,,,,
2019,07,26,05,02,00,280.3,,,,,,,,,,,,,,
2019,07,26,05,03,00,295.9,,,,,,,,,,,,,,
2019,07,26,05,04,00,293.9,,,,,,,,,,,,,,
2019,07,26,05,05,00,292.1,,,,,,,,,,,,,,
2019,07,26,05,06,00,299.7,,,,,,,,,,,,,,
2019,07,26,05,07,00,301.4,,,,,,,,,,,,,,
2019,07,26,05,08,00,303.1,,,,,,,,,,,,,,
2019,07,26,05,09,00,296.6,,,,,,,,,,,,,,
2019,07,26,05,10,00,291.1,,,,,,,,,,,,,,
2019,07,26,05,11,00,289.3,,,,,,,,,,,,,,
2019,07,26,05,12,00,282.5,,,,,,,,,,,,,,
2019,07,26,05,13,00,277.4,,,,,,,,,,,,,,
2019,07,26,05,14,00,267.8,,,,,,,,,,,,,,
2019,07,26,05,15,00,285.3,,,,,,,,,,,,,,
2019,07,26,05,16,00,285.3,,,,,,,,,,,,,,
2019,07,26,05,17,00,269.7,,,,,,,,,,,,,,
2019,07,26,05,18,00,272.0,,,,,,,,,,,,,,
2019,07,26,05,19,00,255.0,,,,,,,,,,,,,,
2019,07,26,05,20,00,254.5,,,,,,,,,,,,,,
2019,07,26,05,21,00,249.1,,,,,,,,,,,,,,
2019,07,26,05,22,00,248.2,,,,,,,,,,,,,,
2019,07,26,05,23,00,253.0,,,,,,,,,,,,,,
2019,07,26,05,24,00,247.9,,,,,,,,,,,,,,
2019,07,26,05,25,00,245.8,,,,,,,,,,,,,,
2019,07,26,05,26,00,253.2,,,,,,,,,,,,,,
2019,07,26,05,27,00,257.4,,,,,,,,,,,,,,
2019,07,26,05,28,00,250.7,,,,,,,,,,,,,,
2019,07,26,05,29,00,252.3,,,,,,,,,,,,,,
2019,07,26,05,30,00,250.3,,,,,,,,,,,,,,
2019,07,26,05,31,00,248.3,,,,,,,,,,,,,,
2019,07,26,05,32,00,252.0,,,,,,,,,,,,,,
2019,07,26,05,33,00,249.9,,,,,,,,,,,,,,
2019,07,26,05,34,00,247.7,,,,,,,,,,,,,,
2019,07,26,05,35,00,238.6,,,,,,,,,,,,,,
2019,07,26,05,36,00,233.1,,,,,,,,,,,,,,
2019,07,26,05,37,00,230.0,,,,,,,,,,,,,,
2019,07,26,05,38,00,233.6,,,,,,,,,,,,,,
2019,07,26,05,39,00,237.0,,,,,,,,,,,,,,
2019,07,26,05,40,00,240.4,,,,,,,,,,,,,,
2019,07,26,05,41,00,243.4,,,,,,,,,,,,,,
2019,07,26,05,42,00,241.6,,,,,,,,,,,,,,
2019,07,26,05,43,00,241.7,,,,,,,,,,,,,,
2019,07,26,05,44,00,234.6,,,,,,,,,,,,,,
2019,07,26,05,45,00,240.1,,,,,,,,,,,,,,
2019,07,26,05,46,00,243.2,,,,,,,,,,,,,,
2019,07,26,05,47,00,241.4,,,,,,,,,,,,,,
2019,07,26,05,48,00,240.9,,,,,,,,,,,,,,
2019,07,26,05,49,00,238.4,,,,,,,,,,,,,,
2019,07,26,05,50,00,235.1,,,,,,,,,,,,,,
2019,07,26,05,51,00,235.7,,,,,,,,,,,,,,
2019,07,26,05,52,00,234.6,,,,,,,,,,,,,,
2019,07,26,05,53,00,235.4,,,,,,,,,,,,,,
2019,07,26,05,54,00,247.4,,,,,,,,,,,,,,
2019,07,26,05,55,00,256.8,,,,,,,,,,,,,,
2019,07,26,05,56,00,252.7,,,,,,,,,,,,,,
2019,07,26,05,57,00,,,,,,,,,,,,,,,
2019,07,26,05,58,00,,,,,,,,,,,,,,,
2019,07,26,05,59,00,291.8,,,,,,,,,,,,,,
2019,07,26,06,00,00,307.7,,,,,,,,,,,,,,
2019,07,26,06,01,00,298.2,,,,,,,,,,,,,,
2019,07,26,06,02,00,298.5,,,,,,,,,,,,,,
2019,07,26,06,03,00,295.2,,,,,,,,,,,,,,
2019,07,26,06,04,00,288.1,,,,,,,,,,,,,,
2019,07,26,06,05,00,293.0,,,,,,,,,,,,,,
2019,07,26,06,06,00,303.2,,,,,,,,,,,,,,
2019,07,26,06,07,00,310.7,,,,,,,,,,,,,,
2019,07,26,06,08,00,329.5,,,,,,,,,,,,,,
2019,07,26,06,09,00,334.1,,,,,,,,,,,,,,
2019,07,26,06,10,00,339.5,,,,,,,,,,,,,,
2019,07,26,06,11,00,319.5,,,,,,,,,,,,,,
2019,07,26,06,12,00,301.3,,,,,,,,,,,,,,
2019,07,26,06,13,00,287.5,,,,,,,,,,,,,,
2019,07,26,06,14,00,294.8,,,,,,,,,,,,,,
2019,07,26,06,15,00,299.1,,,,,,,,,,,,,,
2019,07,26,06,16,00,290.9,,,,,,,,,,,,,,
2019,07,26,06,17,00,289.8,,,,,,,,,,,,,,
2019,07,26,06,18,00,,,,,,,,,,,,,,,
2019,07,26,06,19,00,,,,,,,,,,,,,,,
2019,07,26,06,20,00,295.9,,,,,,,,,,,,,,
2019,07,26,06,21,00,299.4,,,,,,,,,,,,,,
2019,07,26,06,22,00,289.6,,,,,,,,,,,,,,
2019,07,26,06,23,00,270.9,,,,,,,,,,,,,,
2019,07,26,06,24,00,286.1,,,,,,,,,,,,,,
2019,07,26,06,25,00,292.6,,,,,,,,,,,,,,
2019,07,26,06,26,00,280.1,,,,,,,,,,,,,,
2019,07,26,06,27,00,258.6,,,,,,,,,,,,,,
2019,07,26,06,28,00,285.3,,,,,,,,,,,,,,
2019,07,26,06,29,00,295.1,,,,,,,,,,,,,,
2019,07,26,06,30,00,299.6,,,,,,,,,,,,,,
2019,07,26,06,31,00,301.3,,,,,,,,,,,,,,
2019,07,26,06,32,00,294.9,,,,,,,,,,,,,,
2019,07,26,06,33,00,303.2,,,,,,,,,,,,,,
2019,07,26,06,34,00,328.2,,,,,,,,,,,,,,
2019,07,26,06,35,00,315.7,,,,,,,,,,,,,,
2019,07,26,06,36,00,315.4,,,,,,,,,,,,,,
2019,07,26,06,37,00,314.1,,,,,,,,,,,,,,
2019,07,26,06,38,00,320.0,,,,,,,,,,,,,,
2019,07,26,06,39,00,317.7,,,,,,,,,,,,,,
2019,07,26,06,40,00,317.5,,,,,,,,,,,,,,
2019,07,26,06,41,00,297.9,,,,,,,,,,,,,,
2019,07,26,06,42,00,292.3,,,,,,,,,,,,,,
2019,07,26,06,43,00,292.3,,,,,,,,,,,,,,
2019,07,26,06,44,00,295.4,,,,,,,,,,,,,,
2019,07,26,06,45,00,277.5,,,,,,,,,,,,,,
2019,07,26,06,46,00,285.9,,,,,,,,,,,,,,
2019,07,26,06,47,00,282.7,,,,,,,,,,,,,,
2019,07,26,06,48,00,276.7,,,,,,,,,,,,,,
2019,07,26,06,49,00,272.5,,,,,,,,,,,,,,
2019,07,26,06,50,00,273.0,,,,,,,,,,,,,,
2019,07,26,06,51,00,294.4,,,,,,,,,,,,,,
2019,07,26,06,52,00,305.5,,,,,,,,,,,,,,
2019,07,26,06,53,00,309.3,,,,,,,,,,,,,,
2019,07,26,06,54,00,294.3,,,,,,,,,,,,,,
2019,07,26,06,55,00,292.2,,,,,,,,,,,,,,
2019,07,26,06,56,00,289.7,,,,,,,,,,,,,,
2019,07,26,06,57,00,284.8,,,,,,,,,,,,,,
2019,07,26,06,58,00,255.0,,,,,,,,,,,,,,
2019,07,26,06,59,00,249.4,,,,,,,,,,,,,,
2019,07,26,07,00,00,255.2,,,,,,,,,,,,,,
2019,07,26,07,01,00,252.4,,,,,,,,,,,,,,
2019,07,26,07,02,00,242.5,,,,,,,,,,,,,,
2019,07,26,07,03,00,250.1,,,,,,,,,,,,,,
2019,07,26,07,04,00,252.9,,,,,,,,,,,,,,
2019,07,26,07,05,00,250.9,,,,,,,,,,,,,,
2019,07,26,07,06,00,248.9,,,,,,,,,,,,,,
2019,07,26,07,07,00,269.4,,,,,,,,,,,,,,
2019,07,26,07,08,00,273.2,,,,,,,,,,,,,,
2019,07,26,07,09,00,253.5,,,,,,,,,,,,,,
2019,07,26,07,10,00,253.3,,,,,,,,,,,,,,
2019,07,26,07,11,00,281.6,,,,,,,,,,,,,,
2019,07,26,07,12,00,254.1,,,,,,,,,,,,,,
2019,07,26,07,13,00,248.8,,,,,,,,,,,,,,
2019,07,26,07,14,00,240.1,,,,,,,,,,,,,,
2019,07,26,07,15,00,233.9,,,,,,,,,,,,,,
2019,07,26,07,16,00,226.8,,,,,,,,,,,,,,
2019,07,26,07,17,00,231.3,,,,,,,,,,,,,,
2019,07,26,07,18,00,237.3,,,,,,,,,,,,,,
2019,07,26,07,19,00,246.9,,,,,,,,,,,,,,
2019,07,26,07,20,00,240.8,,,,,,,,,,,,,,
2019,07,26,07,21,00,239.4,,,,,,,,,,,,,,
2019,07,26,07,22,00,242.8,,,,,,,,,,,,,,
2019,07,26,07,23,00,227.4,,,,,,,,,,,,,,
2019,07,26,07,24,00,224.5,,,,,,,,,,,,,,
2019,07,26,07,25,00,228.3,,,,,,,,,,,,,,
2019,07,26,07,26,00,233.6,,,,,,,,,,,,,,
2019,07,26,07,27,00,247.9,,,,,,,,,,,,,,
2019,07,26,07,28,00,241.5,,,,,,,,,,,,,,
2019,07,26,07,29,00,244.5,,,,,,,,,,,,,,
2019,07,26,07,30,00,247.6,,,,,,,,,,,,,,
2019,07,26,07,31,00,246.7,,,,,,,,,,,,,,
2019,07,26,07,32,00,252.4,,,,,,,,,,,,,,
2019,07,26,07,33,00,273.4,,,,,,,,,,,,,,
2019,07,26,07,34,00,262.2,,,,,,,,,,,,,,
2019,07,26,07,35,00,257.4,,,,,,,,,,,,,,
2019,07,26,07,36,00,256.2,,,,,,,,,,,,,,
2019,07,26,07,37,00,253.4,,,,,,,,,,,,,,
2019,07,26,07,38,00,252.0,,,,,,,,,,,,,,
2019,07,26,07,39,00,253.2,,,,,,,,,,,,,,
2019,07,26,07,40,00,255.8,,,,,,,,,,,,,,
2019,07,26,07,41,00,265.0,,,,,,,,,,,,,,
2019,07,26,07,42,00,274.9,,,,,,,,,,,,,,
2019,07,26,07,43,00,286.2,,,,,,,,,,,,,,
2019,07,26,07,44,00,269.6,,,,,,,,,,,,,,
2019,07,26,07,45,00,263.9,,,,,,,,,,,,,,
2019,07,26,07,46,00,288.4,,,,,,,,,,,,,,
2019,07,26,07,47,00,286.8,,,,,,,,,,,,,,
2019,07,26,07,48,00,286.8,,,,,,,,,,,,,,
2019,07,26,07,49,00,284.9,,,,,,,,,,,,,,
2019,07,26,07,50,00,293.6,,,,,,,,,,,,,,
2019,07,26,07,51,00,289.1,,,,,,,,,,,,,,
2019,07,26,07,52,00,287.6,,,,,,,,,,,,,,
2019,07,26,07,53,00,293.3,,,,,,,,,,,,,,
2019,07,26,07,54,00,291.4,,,,,,,,,,,,,,
2019,07,26,07,55,00,270.5,,,,,,,,,,,,,,
2019,07,26,07,56,00,263.6,,,,,,,,,,,,,,
2019,07,26,07,57,00,281.4,,,,,,,,,,,,,,
2019,07,26,07,58,00,283.6,,,,,,,,,,,,,,
2019,07,26,07,59,00,280.4,,,,,,,,,,,,,,
2019,07,26,08,00,00,280.1,,,,,,,,,,,,,,
2019,07,26,08,01,00,253.6,,,,,,,,,,,,,,
2019,07,26,08,02,00,251.3,,,,,,,,,,,,,,
2019,07,26,08,03,00,247.2,,,,,,,,,,,,,,
2019,07,26,08,04,00,253.9,,,,,,,,,,,,,,
2019,07,26,08,05,00,249.3,,,,,,,,,,,,,,
2019,07,26,08,06,00,242.8,,,,,,,,,,,,,,
2019,07,26,08,07,00,229.7,,,,,,,,,,,,,,
2019,07,26,08,08,00,213.2,,,,,,,,,,,,,,
2019,07,26,08,09,00,,,,,,,,,,,,,,,
2019,07,26,08,10,00,,,,,,,,,,,,,,,
2019,07,26,08,11,00,252.7,,,,,,,,,,,,,,
2019,07,26,08,12,00,241.5,,,,,,,,,,,,,,
2019,07,26,08,13,00,241.2,,,,,,,,,,,,,,
2019,07,26,08,14,00,245.7,,,,,,,,,,,,,,
2019,07,26,08,15,00,263.1,,,,,,,,,,,,,,
2019,07,26,08,16,00,256.6,,,,,,,,,,,,,,
2019,07,26,08,17,00,252.7,,,,,,,,,,,,,,
2019,07,26,08,18,00,241.2,,,,,,,,,,,,,,
2019,07,26,08,19,00,234.5,,,,,,,,,,,,,,
2019,07,26,08,20,00,230.3,,,,,,,,,,,,,,
2019,07,26,08,21,00,220.1,,,,,,,,,,,,,,
2019,07,26,08,22,00,216.2,,,,,,,,,,,,,,
2019,07,26,08,23,00,208.2,,,,,,,,,,,,,,
2019,07,26,08,24,00,207.3,,,,,,,,,,,,,,
2019,07,26,08,25,00,169.5,,,,,,,,,,,,,,
2019,07,26,08,26,00,154.8,,,,,,,,,,,,,,
2019,07,26,08,27,00,139.5,,,,,,,,,,,,,,
2019,07,26,08,28,00,121.6,,,,,,,,,,,,,,
2019,07,26,08,29,00,114.4,,,,,,,,,,,,,,
2019,07,26,08,30,00,113.6,,,,,,,,,,,,,,
2019,07,26,08,31,00,100.7,,,,,,,,,,,,,,
2019,07,26,08,32,00,86.2,,,,,,,,,,,,,,
2019,07,26,08,33,00,87.0,,,,,,,,,,,,,,
2019,07,26,08,34,00,89.2,,,,,,,,,,,,,,
2019,07,26,08,35,00,94.3,,,,,,,,,,,,,,
2019,07,26,08,36,00,99.3,,,,,,,,,,,,,,
2019,07,26,08,37,00,101.9,,,,,,,,,,,,,,
2019,07,26,08,38,00,94.0,,,,,,,,,,,,,,
2019,07,26,08,39,00,79.5,,,,,,,,,,,,,,
2019,07,26,08,40,00,79.8,,,,,,,,,,,,,,
2019,07,26,08,41,00,99.1,,,,,,,,,,,,,,
2019,07,26,08,42,00,110.2,,,,,,,,,,,,,,
2019,07,26,08,43,00,124.2,,,,,,,,,,,,,,
2019,07,26,08,44,00,124.2,,,,,,,,,,,,,,
2019,07,26,08,45,00,128.7,,,,,,,,,,,,,,
2019,07,26,08,46,00,138.5,,,,,,,,,,,,,,
2019,07,26,08,47,00,143.0,,,,,,,,,,,,,,
2019,07,26,08,48,00,146.3,,,,,,,,,,,,,,
2019,07,26,08,49,00,152.6,,,,,,,,,,,,,,
2019,07,26,08,50,00,157.8,,,,,,,,,,,,,,
2019,07,26,08,51,00,165.6,,,,,,,,,,,,,,
2019,07,26,08,52,00,177.6,,,,,,,,,,,,,,
2019,07,26,08,53,00,199.0,,,,,,,,,,,,,,
2019,07,26,08,54,00,229.0,,,,,,,,,,,,,,
2019,07,26,08,55,00,240.9,,,,,,,,,,,,,,
2019,07,26,08,56,00,220.0,,,,,,,,,,,,,,
2019,07,26,08,57,00,219.9,,,,,,,,,,,,,,
2019,07,26,08,58,00,239.5,,,,,,,,,,,,,,
2019,07,26,08,59,00,252.7,,,,,,,,,,,,,,
2019,07,26,09,00,00,253.6,,,,,,,,,,,,,,
2019,07,26,09,01,00,253.3,,,,,,,,,,,,,,
2019,07,26,09,02,00,253.5,,,,,,,,,,,,,,
2019,07,26,09,03,00,277.1,,,,,,,,,,,,,,
2019,07,26,09,04,00,268.8,,,,,,,,,,,,,,
2019,07,26,09,05,00,253.5,,,,,,,,,,,,,,
2019,07,26,09,06,00,253.5,,,,,,,,,,,,,,
2019,07,26,09,07,00,261.7,,,,,,,,,,,,,,
2019,07,26,09,08,00,275.3,,,,,,,,,,,,,,
2019,07,26,09,09,00,282.6,,,,,,,,,,,,,,
2019,07,26,09,10,00,291.8,,,,,,,,,,,,,,
2019,07,26,09,11,00,298.0,,,,,,,,,,,,,,
2019,07,26,09,12,00,293.5,,,,,,,,,,,,,,
2019,07,26,09,13,00,296.7,,,,,,,,,,,,,,
2019,07,26,09,14,00,301.6,,,,,,,,,,,,,,
2019,07,26,09,15,00,281.3,,,,,,,,,,,,,,
2019,07,26,09,16,00,273.5,,,,,,,,,,,,,,
2019,07,26,09,17,00,281.6,,,,,,,,,,,,,,
2019,07,26,09,18,00,270.6,,,,,,,,,,,,,,
2019,07,26,09,19,00,281.4,,,,,,,,,,,,,,
2019,07,26,09,20,00,288.2,,,,,,,,,,,,,,
2019,07,26,09,21,00,277.4,,,,,,,,,,,,,,
2019,07,26,09,22,00,281.9,,,,,,,,,,,,,,
2019,07,26,09,23,00,256.3,,,,,,,,,,,,,,
2019,07,26,09,24,00,246.3,,,,,,,,,,,,,,
2019,07,26,09,25,00,245.9,,,,,,,,,,,,,,
2019,07,26,09,26,00,238.9,,,,,,,,,,,,,,
2019,07,26,09,27,00,229.5,,,,,,,,,,,,,,
2019,07,26,09,28,00,243.5,,,,,,,,,,,,,,
2019,07,26,09,29,00,,,,,,,,,,,,,,,
2019,07,26,09,30,00,,,,,,,,,,,,,,,
2019,07,26,09,31,00,235.9,,,,,,,,,,,,,,
2019,07,26,09,32,00,236.4,,,,,,,,,,,,,,
2019,07,26,09,33,00,230.4,,,,,,,,,,,,,,
2019,07,26,09,34,00,217.4,,,,,,,,,,,,,,
2019,07,26,09,35,00,227.4,,,,,,,,,,,,,,
2019,07,26,09,36,00,218.0,,,,,,,,,,,,,,
2019,07,26,09,37,00,206.5,,,,,,,,,,,,,,
2019,07,26,09,38,00,204.4,,,,,,,,,,,,,,
2019,07,26,09,39,00,207.7,,,,,,,,,,,,,,
2019,07,26,09,40,00,205.9,,,,,,,,,,,,,,
2019,07,26,09,41,00,204.8,,,,,,,,,,,,,,
2019,07,26,09,42,00,198.1,,,,,,,,,,,,,,
2019,07,26,09,43,00,191.4,,,,,,,,,,,,,,
2019,07,26,09,44,00,188.4,,,,,,,,,,,,,,
2019,07,26,09,45,00,182.2,,,,,,,,,,,,,,
2019,07,26,09,46,00,182.8,,,,,,,,,,,,,,